KD8ZVC Weather Reports


time (UTC)temp
F
wind
direction
speed
knots
gust
knots
rain 1hr
in
rain 24hr
in
rain mn
in
humidity
%
barometer
mb
20220629024508 83 305 0.0 0.0 0.00 0.00 0.00 22 1009.3
20220629024009 83 305 0.0 0.0 0.00 0.00 0.00 21 1009.3
20220629023508 84 305 0.0 0.0 0.00 0.00 0.00 21 1009.3
20220629023009 85 305 0.0 0.0 0.00 0.00 0.00 21 1009.3
20220629022512 85 306 0.0 0.0 0.00 0.00 0.00 20 1009.3
20220629022009 86 305 0.0 0.0 0.00 0.00 0.00 19 1009.3
20220629021509 87 305 0.0 1.7 0.00 0.00 0.00 21 1009.2
20220629021008 88 305 0.0 1.7 0.00 0.00 0.00 19 1009.3
20220629020509 89 113 0.0 0.9 0.00 0.00 0.00 19 1009.3
20220629020011 90 112 0.0 0.9 0.00 0.00 0.00 18 1009.2
20220629015508 90 113 0.0 0.9 0.00 0.00 0.00 17 1009.3
20220629015007 91 113 0.0 0.9 0.00 0.00 0.00 17 1009.3
20220629014507 90 113 0.0 0.9 0.00 0.00 0.00 16 1009.3
20220629014008 90 113 0.0 2.6 0.00 0.00 0.00 15 1009.2
20220629013508 91 113 0.0 2.6 0.00 0.00 0.00 14 1009.3
20220629013007 92 100 0.0 0.9 0.00 0.00 0.00 16 1009.3
20220629012507 92 100 0.0 0.9 0.00 0.00 0.00 17 1009.3
20220629012007 92 119 0.0 0.9 0.00 0.00 0.00 16 1009.4
20220629011506 92 119 0.0 0.9 0.00 0.00 0.00 14 1009.4
20220629011007 92 119 0.0 1.7 0.00 0.00 0.00 13 1009.4
20220629010508 92 109 0.0 1.7 0.00 0.00 0.00 14 1009.6
20220629010010 92 110 0.0 1.7 0.00 0.00 0.00 13 1009.6
20220629005509 93 284 0.0 1.7 0.00 0.00 0.00 12 1009.6
20220629005006 93 120 0.0 1.7 0.00 0.00 0.00 12 1009.7
20220629004507 93 117 0.0 1.7 0.00 0.00 0.00 13 1009.7
20220629004007 93 122 0.0 2.6 0.00 0.00 0.00 14 1009.7
20220629003506 93 123 0.9 2.6 0.00 0.00 0.00 14 1009.8
20220629003007 93 290 0.0 2.6 0.00 0.00 0.00 14 1009.9
20220629002507 94 248 0.0 2.6 0.00 0.00 0.00 13 1009.9
20220629002007 94 248 0.9 2.6 0.00 0.00 0.00 13 1009.9
20220629001507 94 148 0.9 4.3 0.00 0.00 0.00 13 1010.1
20220629001007 95 264 0.0 4.3 0.00 0.00 0.00 13 1010.1
20220629000507 95 136 0.0 0.9 0.00 0.00 0.00 14 1010.1
20220629000011 94 212 0.0 4.3 0.00 0.00 0.00 13 1010.1
20220628235506 94 273 0.0 4.3 0.00 0.00 0.00 12 1010.2
20220628235006 94 271 0.0 3.5 0.00 0.00 0.00 12 1010.4
20220628234509 94 135 0.9 2.6 0.00 0.00 0.00 12 1010.4
20220628234006 94 252 0.9 3.5 0.00 0.00 0.00 13 1010.4
20220628233507 95 148 0.0 2.6 0.00 0.00 0.00 12 1010.5
20220628233006 95 120 0.0 2.6 0.00 0.00 0.00 12 1010.6
20220628232505 95 272 0.0 1.7 0.00 0.00 0.00 12 1010.6
20220628232006 95 122 0.0 1.7 0.00 0.00 0.00 12 1010.4
20220628231510 95 129 0.0 1.7 0.00 0.00 0.00 12 1010.5
20220628231007 95 267 0.0 1.7 0.00 0.00 0.00 13 1010.6
20220628230507 95 245 0.9 1.7 0.00 0.00 0.00 12 1010.6
20220628230009 95 281 0.9 1.7 0.00 0.00 0.00 13 1010.6
20220628225507 95 130 0.9 2.6 0.00 0.00 0.00 11 1010.7
20220628225007 96 259 0.0 2.6 0.00 0.00 0.00 11 1010.7
20220628224007 95 229 0.0 1.7 0.00 0.00 0.00 13 1010.8
20220628223506 94 275 0.0 1.7 0.00 0.00 0.00 12 1010.8
20220628223007 94 286 0.9 3.5 0.00 0.00 0.00 14 1010.8
20220628222507 94 243 0.9 3.5 0.00 0.00 0.00 13 1011.0
20220628222007 94 160 0.9 3.5 0.00 0.00 0.00 14 1011.0
20220628221509 94 283 0.0 4.3 0.00 0.00 0.00 13 1010.9
20220628221007 94 211 0.0 4.3 0.00 0.00 0.00 13 1011.0
20220628220507 94 250 0.0 1.7 0.00 0.00 0.00 12 1011.0
20220628220010 94 131 0.9 2.6 0.00 0.00 0.00 13 1011.0
20220628215507 94 247 0.9 2.6 0.00 0.00 0.00 11 1011.1
20220628215007 94 116 0.9 2.6 0.00 0.00 0.00 11 1011.0
20220628214507 94 275 0.9 4.3 0.00 0.00 0.00 13 1011.1
20220628214007 94 219 0.9 4.3 0.00 0.00 0.00 11 1011.2
20220628213509 94 143 0.0 0.9 0.00 0.00 0.00 15 1011.2
20220628213007 94 140 0.0 1.7 0.00 0.00 0.00 14 1011.2
20220628212507 94 275 0.9 2.6 0.00 0.00 0.00 14 1011.2
20220628212006 94 141 0.0 2.6 0.00 0.00 0.00 15 1011.3
20220628211506 94 115 0.0 1.7 0.00 0.00 0.00 15 1011.2
20220628211006 94 262 0.0 1.7 0.00 0.00 0.00 15 1011.3
20220628210508 94 229 0.0 3.5 0.00 0.00 0.00 15 1011.3
20220628210010 95 284 0.0 3.5 0.00 0.00 0.00 14 1011.3
20220628205508 94 262 0.9 2.6 0.00 0.00 0.00 19 1011.4
20220628205006 94 259 0.9 2.6 0.00 0.00 0.00 17 1011.3
20220628204506 94 264 0.9 3.5 0.00 0.00 0.00 18 1011.4
20220628204006 93 274 0.9 3.5 0.00 0.00 0.00 16 1011.4
20220628203507 94 285 0.9 3.5 0.00 0.00 0.00 16 1011.4
20220628203006 95 146 0.0 2.6 0.00 0.00 0.00 17 1011.4
20220628202510 95 270 0.0 2.6 0.00 0.00 0.00 17 1011.5
20220628202007 94 292 0.0 1.7 0.00 0.00 0.00 17 1011.6
20220628201507 95 145 0.0 1.7 0.00 0.00 0.00 16 1011.6
20220628201006 94 99 0.0 1.7 0.00 0.00 0.00 18 1011.7
20220628200507 94 269 0.0 0.9 0.00 0.00 0.00 19 1011.6
20220628200012 93 276 0.0 1.7 0.00 0.00 0.00 18 1011.6
20220628195506 93 240 0.0 1.7 0.00 0.00 0.00 19 1011.6
20220628195007 93 51 0.0 1.7 0.00 0.00 0.00 19 1011.8
20220628194507 93 143 0.0 0.9 0.00 0.00 0.00 18 1011.8
20220628194007 93 119 0.0 1.7 0.00 0.00 0.00 18 1011.9
20220628193508 91 263 0.0 1.7 0.00 0.00 0.00 19 1011.9
20220628193007 91 279 0.0 1.7 0.00 0.00 0.00 18 1012.0
20220628192506 91 131 0.9 1.7 0.00 0.00 0.00 18 1012.0
20220628192007 91 113 0.9 3.5 0.00 0.00 0.00 19 1012.0
20220628191510 91 276 0.9 4.3 0.00 0.00 0.00 19 1012.1
20220628191008 90 250 0.0 2.6 0.00 0.00 0.00 19 1012.0
20220628190506 89 242 0.9 2.6 0.00 0.00 0.00 21 1012.0
20220628190009 89 272 0.9 2.6 0.00 0.00 0.00 20 1012.1
20220628185508 91 288 0.0 1.7 0.00 0.00 0.00 18 1012.2
20220628185007 91 253 0.0 2.6 0.00 0.00 0.00 19 1012.1
20220628184507 90 219 0.9 1.7 0.00 0.00 0.00 20 1012.0
20220628184014 90 237 0.0 1.7 0.00 0.00 0.00 19 1012.1
20220628183507 89 274 0.0 1.7 0.00 0.00 0.00 20 1012.2
20220628183007 89 269 0.0 2.6 0.00 0.00 0.00 21 1012.1
20220628182506 90 266 0.0 0.9 0.00 0.00 0.00 18 1012.2
20220628182013 89 129 0.0 1.7 0.00 0.00 0.00 19 1012.2
20220628181507 88 272 0.9 2.6 0.00 0.00 0.00 19 1012.0
20220628181007 88 257 0.0 2.6 0.00 0.00 0.00 19 1012.1
20220628180506 89 272 0.0 1.7 0.00 0.00 0.00 19 1012.0
20220628180009 88 174 0.0 0.0 0.00 0.00 0.00 20 1011.9
20220628175507 86 259 0.0 0.9 0.00 0.00 0.00 22 1012.0
20220628175006 86 270 0.0 0.9 0.00 0.00 0.00 20 1011.9
20220628174507 86 155 0.0 1.7 0.00 0.00 0.00 17 1011.9
20220628174006 85 126 0.0 1.7 0.00 0.00 0.00 17 1011.8
20220628173508 84 166 0.0 0.9 0.00 0.00 0.00 23 1011.8
20220628173007 84 262 0.0 0.9 0.00 0.00 0.00 24 1011.8
20220628172507 82 273 0.0 0.9 0.00 0.00 0.00 25 1011.9
20220628172007 81 277 0.0 0.9 0.00 0.00 0.00 24 1011.8
20220628171506 81 267 0.0 0.9 0.00 0.00 0.00 28 1011.7
20220628171008 80 266 0.0 0.9 0.00 0.00 0.00 25 1011.8
20220628170510 79 266 0.0 0.9 0.00 0.00 0.00 23 1011.8
20220628170009 79 263 0.0 0.0 0.00 0.00 0.00 25 1011.9
20220628165507 78 262 0.0 0.0 0.00 0.00 0.00 32 1011.8
20220628165009 78 262 0.0 0.0 0.00 0.00 0.00 32 1011.8
20220628164507 77 264 0.0 0.0 0.00 0.00 0.00 31 1011.8
20220628164006 77 264 0.0 0.0 0.00 0.00 0.00 32 1011.8
20220628163508 77 264 0.0 0.0 0.00 0.00 0.00 29 1011.8
20220628163006 76 264 0.0 0.0 0.00 0.00 0.00 29 1011.8
20220628162507 76 264 0.0 0.0 0.00 0.00 0.00 32 1011.8
20220628162007 76 264 0.0 0.0 0.00 0.00 0.00 31 1011.9
20220628161509 76 264 0.0 0.0 0.00 0.00 0.00 29 1011.9
20220628161007 76 264 0.0 0.0 0.00 0.00 0.00 31 1011.8
20220628160506 75 264 0.0 0.0 0.00 0.00 0.00 33 1011.8
20220628160009 75 264 0.0 0.0 0.00 0.00 0.00 30 1011.8
20220628155507 75 264 0.0 0.0 0.00 0.00 0.00 29 1011.8
20220628155010 74 264 0.0 0.0 0.00 0.00 0.00 30 1011.8
20220628154506 74 264 0.0 0.0 0.00 0.00 0.00 30 1011.8
20220628154006 74 264 0.0 0.0 0.00 0.00 0.00 29 1011.7
20220628153507 74 264 0.0 0.0 0.00 0.00 0.00 32 1011.7
20220628153007 73 264 0.0 0.0 0.00 0.00 0.00 31 1011.7
20220628152506 73 264 0.0 0.0 0.00 0.00 0.00 35 1011.8
20220628152006 73 264 0.0 0.0 0.00 0.00 0.00 35 1011.7
20220628151506 72 264 0.0 0.0 0.00 0.00 0.00 34 1011.7
20220628151006 72 264 0.0 0.0 0.00 0.00 0.00 37 1011.6
20220628150506 72 264 0.0 0.0 0.00 0.00 0.00 40 1011.6
20220628150009 72 264 0.0 0.0 0.00 0.00 0.00 35 1011.6
20220628145507 72 264 0.0 0.0 0.00 0.00 0.00 34 1011.5
20220628145006 72 264 0.0 0.0 0.00 0.00 0.00 31 1011.6
20220628144507 72 264 0.0 0.0 0.00 0.00 0.00 31 1011.6
20220628144007 71 264 0.0 0.0 0.00 0.00 0.00 29 1011.7
20220628143507 71 264 0.0 0.0 0.00 0.00 0.00 31 1011.5
20220628143008 71 264 0.0 0.0 0.00 0.00 0.00 30 1011.4
20220628142507 70 264 0.0 0.0 0.00 0.00 0.00 29 1011.5
20220628142006 70 264 0.0 0.0 0.00 0.00 0.00 28 1011.4
20220628141508 71 264 0.0 0.0 0.00 0.00 0.00 28 1011.4
20220628141007 71 264 0.0 0.0 0.00 0.00 0.00 28 1011.4
20220628140507 71 264 0.0 0.0 0.00 0.00 0.00 27 1011.3
20220628140009 70 264 0.0 0.0 0.00 0.00 0.00 27 1011.3
20220628135510 70 264 0.0 0.0 0.00 0.00 0.00 28 1011.2
20220628135007 70 264 0.0 0.0 0.00 0.00 0.00 27 1011.1
20220628134510 69 264 0.0 0.0 0.00 0.00 0.00 28 1011.2
20220628134007 69 264 0.0 0.0 0.00 0.00 0.00 28 1011.1
20220628133508 69 264 0.0 0.0 0.00 0.00 0.00 28 1011.1
20220628133007 70 264 0.0 0.0 0.00 0.00 0.00 27 1011.0
20220628132506 69 264 0.0 0.0 0.00 0.00 0.00 26 1011.0
20220628132007 69 264 0.0 0.0 0.00 0.00 0.00 26 1010.9
20220628131507 70 264 0.0 0.0 0.00 0.00 0.00 25 1010.9
20220628131006 70 264 0.0 0.0 0.00 0.00 0.00 24 1010.9
20220628130507 70 264 0.0 0.0 0.00 0.00 0.00 24 1010.9
20220628130009 70 264 0.0 0.0 0.00 0.00 0.00 24 1010.9
20220628125506 70 264 0.0 0.0 0.00 0.00 0.00 23 1010.8
20220628125011 70 264 0.0 0.0 0.00 0.00 0.00 23 1010.8
20220628124507 71 264 0.0 0.0 0.00 0.00 0.00 23 1010.9
20220628124007 71 264 0.0 0.0 0.00 0.00 0.00 23 1010.8
20220628123507 71 264 0.0 0.0 0.00 0.00 0.00 22 1010.9
20220628123008 70 264 0.0 0.0 0.00 0.00 0.00 23 1010.8
20220628122507 70 264 0.0 0.0 0.00 0.00 0.00 23 1011.0
20220628122007 70 264 0.0 0.0 0.00 0.00 0.00 23 1010.9
20220628121508 71 264 0.0 0.0 0.00 0.00 0.00 23 1010.9
20220628121007 71 264 0.0 0.0 0.00 0.00 0.00 23 1010.9
20220628120509 71 264 0.0 0.0 0.00 0.00 0.00 23 1010.8
20220628120009 71 264 0.0 0.0 0.00 0.00 0.00 23 1010.9
20220628115507 71 264 0.0 0.0 0.00 0.00 0.00 23 1010.9
20220628115007 71 264 0.0 0.0 0.00 0.00 0.00 23 1010.8
20220628114507 71 264 0.0 0.0 0.00 0.00 0.00 23 1010.9
20220628114007 71 264 0.0 0.0 0.00 0.00 0.00 23 1010.8
20220628113510 71 264 0.0 0.0 0.00 0.00 0.00 23 1010.9
20220628113007 71 264 0.0 0.0 0.00 0.00 0.00 23 1010.9
20220628112507 71 264 0.0 0.0 0.00 0.00 0.00 23 1010.9
20220628112007 71 264 0.0 0.0 0.00 0.00 0.00 23 1011.0
20220628111508 71 264 0.0 0.0 0.00 0.00 0.00 24 1011.1
20220628111007 71 264 0.0 0.0 0.00 0.00 0.00 24 1011.1
20220628110507 71 264 0.0 0.0 0.00 0.00 0.00 24 1011.1
20220628110009 71 264 0.0 0.0 0.00 0.00 0.00 24 1011.0
20220628105507 71 264 0.0 0.0 0.00 0.00 0.00 24 1011.1
20220628105007 71 264 0.0 0.0 0.00 0.00 0.00 24 1011.1
20220628104507 71 264 0.0 0.0 0.00 0.00 0.00 24 1011.2
20220628104007 71 264 0.0 0.0 0.00 0.00 0.00 24 1011.2
20220628103507 71 264 0.0 0.0 0.00 0.00 0.00 24 1011.3
20220628103007 71 264 0.0 0.0 0.00 0.00 0.00 24 1011.2
20220628102507 71 264 0.0 0.0 0.00 0.00 0.00 24 1011.2
20220628102008 71 264 0.0 0.0 0.00 0.00 0.00 24 1011.2
20220628101508 71 264 0.0 0.0 0.00 0.00 0.00 24 1011.2
20220628101008 71 264 0.0 0.0 0.00 0.00 0.00 24 1011.4
20220628100508 71 264 0.0 0.0 0.00 0.00 0.00 25 1011.3
20220628100009 71 264 0.0 0.0 0.00 0.00 0.00 24 1011.4
20220628095507 71 264 0.0 0.0 0.00 0.00 0.00 24 1011.3
20220628095007 71 264 0.0 0.0 0.00 0.00 0.00 24 1011.4
20220628094506 71 264 0.0 0.0 0.00 0.00 0.00 25 1011.3
20220628094007 71 264 0.0 0.0 0.00 0.00 0.00 26 1011.3
20220628093507 71 264 0.0 0.0 0.00 0.00 0.00 26 1011.4
20220628093007 72 264 0.0 0.0 0.00 0.00 0.00 25 1011.4
20220628092507 72 264 0.0 0.0 0.00 0.00 0.00 25 1011.4
20220628092007 72 264 0.0 0.0 0.00 0.00 0.00 25 1011.4
20220628091507 72 264 0.0 0.0 0.00 0.00 0.00 25 1011.4
20220628091006 72 264 0.0 0.0 0.00 0.00 0.00 25 1011.4
20220628090507 72 264 0.0 0.0 0.00 0.00 0.00 26 1011.4
20220628090007 72 264 0.0 0.0 0.00 0.00 0.00 26 1011.4
20220628085506 72 264 0.0 0.0 0.00 0.00 0.00 26 1011.3
20220628085006 72 264 0.0 0.0 0.00 0.00 0.00 25 1011.4
20220628084508 72 264 0.0 0.0 0.00 0.00 0.00 25 1011.5
20220628084005 72 264 0.0 0.0 0.00 0.00 0.00 26 1011.6
20220628083505 72 264 0.0 0.0 0.00 0.00 0.00 25 1011.6
20220628083005 72 264 0.0 0.0 0.00 0.00 0.00 26 1011.6
20220628082505 72 264 0.0 0.0 0.00 0.00 0.00 26 1011.6
20220628082006 72 264 0.0 0.0 0.00 0.00 0.00 26 1011.6
20220628081506 72 264 0.0 0.0 0.00 0.00 0.00 26 1011.6
20220628081005 72 264 0.0 0.0 0.00 0.00 0.00 26 1011.6
20220628080506 72 264 0.0 0.0 0.00 0.00 0.00 26 1011.6
20220628080010 72 264 0.0 0.0 0.00 0.00 0.00 26 1011.6
20220628075513 73 264 0.0 0.0 0.00 0.00 0.00 26 1011.7
20220628075007 73 264 0.0 0.0 0.00 0.00 0.00 26 1011.6
20220628074507 73 264 0.0 0.0 0.00 0.00 0.00 25 1011.6
20220628074007 73 264 0.0 0.0 0.00 0.00 0.00 25 1011.6
20220628073507 73 264 0.0 0.0 0.00 0.00 0.00 25 1011.6
20220628073008 73 264 0.0 0.0 0.00 0.00 0.00 25 1011.7
20220628072507 73 264 0.0 0.0 0.00 0.00 0.00 26 1011.6
20220628072007 73 264 0.0 0.0 0.00 0.00 0.00 26 1011.7
20220628071507 73 264 0.0 0.0 0.00 0.00 0.00 26 1011.7
20220628071008 74 264 0.0 0.0 0.00 0.00 0.00 26 1011.7
20220628070507 74 264 0.0 0.0 0.00 0.00 0.00 26 1011.8
20220628070017 75 264 0.0 0.0 0.00 0.00 0.00 25 1011.8
20220628065507 75 264 0.0 0.0 0.00 0.00 0.00 25 1011.7
20220628065008 75 264 0.0 0.0 0.00 0.00 0.00 25 1011.8
20220628064508 75 264 0.0 0.0 0.00 0.00 0.00 25 1011.9
20220628064007 75 264 0.0 0.0 0.00 0.00 0.00 26 1011.8
20220628063508 75 264 0.0 0.0 0.00 0.00 0.00 26 1011.9
20220628063007 75 264 0.0 0.0 0.00 0.00 0.00 26 1011.9
20220628062508 75 264 0.0 0.0 0.00 0.00 0.00 25 1012.0
20220628062011 75 264 0.0 0.0 0.00 0.00 0.00 24 1012.0
20220628061507 75 264 0.0 0.0 0.00 0.00 0.00 24 1012.0
20220628061008 76 264 0.0 0.0 0.00 0.00 0.00 24 1012.0
20220628060511 76 264 0.0 0.0 0.00 0.00 0.00 23 1012.0
20220628060010 76 264 0.0 0.0 0.00 0.00 0.00 23 1012.1
20220628055508 76 264 0.0 0.0 0.00 0.00 0.00 23 1012.2
20220628055011 76 264 0.0 0.0 0.00 0.00 0.00 23 1012.1
20220628054509 76 264 0.0 0.0 0.00 0.00 0.00 24 1012.2
20220628054008 76 264 0.0 0.0 0.00 0.00 0.00 23 1012.2
20220628053508 76 264 0.0 0.0 0.00 0.00 0.00 23 1012.1
20220628053008 76 264 0.0 0.0 0.00 0.00 0.00 23 1012.1
20220628052508 77 264 0.0 0.0 0.00 0.00 0.00 23 1012.1
20220628052007 77 264 0.0 0.0 0.00 0.00 0.00 23 1012.0
20220628051510 77 264 0.0 0.0 0.00 0.00 0.00 23 1012.0
20220628051008 77 264 0.0 0.0 0.00 0.00 0.00 23 1012.0
20220628050507 77 264 0.0 0.0 0.00 0.00 0.00 22 1011.9
20220628050009 77 264 0.0 0.0 0.00 0.00 0.00 23 1011.8
20220628045507 77 264 0.0 0.0 0.00 0.00 0.00 23 1011.8
20220628045006 77 264 0.0 0.0 0.00 0.00 0.00 23 1011.8
20220628044506 77 264 0.0 0.0 0.00 0.00 0.00 22 1011.7
20220628044007 78 264 0.0 0.0 0.00 0.00 0.00 22 1011.7
20220628043507 78 264 0.0 0.0 0.00 0.00 0.00 22 1011.7
20220628043009 78 264 0.0 0.0 0.00 0.00 0.00 22 1011.7
20220628042510 78 264 0.0 0.0 0.00 0.00 0.00 21 1011.7
20220628042009 78 264 0.0 0.0 0.00 0.00 0.00 20 1011.7
20220628041508 78 264 0.0 0.0 0.00 0.00 0.00 20 1011.6
20220628041016 78 264 0.0 0.0 0.00 0.00 0.00 20 1011.6
20220628040508 79 264 0.0 0.0 0.00 0.00 0.00 20 1011.6
20220628040010 79 264 0.0 0.0 0.00 0.00 0.00 21 1011.6
20220628035508 79 264 0.0 0.0 0.00 0.00 0.00 20 1011.5
20220628035008 79 264 0.0 0.0 0.00 0.00 0.00 20 1011.6
20220628034507 80 264 0.0 0.0 0.00 0.00 0.00 19 1011.6
20220628034010 80 264 0.0 0.0 0.00 0.00 0.00 19 1011.5
20220628033508 80 264 0.0 0.0 0.00 0.00 0.00 18 1011.5
20220628033008 80 264 0.0 0.0 0.00 0.00 0.00 19 1011.6
20220628032509 81 264 0.0 0.0 0.00 0.00 0.00 18 1011.4
20220628032008 81 264 0.0 0.0 0.00 0.00 0.00 19 1011.4
20220628031508 81 264 0.0 0.0 0.00 0.00 0.00 20 1011.4
20220628031013 81 264 0.0 0.0 0.00 0.00 0.00 20 1011.4
20220628030509 82 264 0.0 0.0 0.00 0.00 0.00 19 1011.5
20220628030011 82 264 0.0 0.0 0.00 0.00 0.00 20 1011.5
20220628025509 82 264 0.0 0.0 0.00 0.00 0.00 20 1011.4
20220628025008 83 264 0.0 0.0 0.00 0.00 0.00 22 1011.4